When you browse on this site, cookies collect data to enhance your experience and personalize the content and advertising you see.
Visit our Privacy Policy to learn more. By continuing to use the site, you agree to this use of cookies and data.
  • en France
  • Liste des pays
  • À 7 jours
  • Température de l'eau
  • Carte satellitaire
  • Carte météo
  • Widgets météo
  • user-avatar
    Se connecter

    Météo par heure à Vidin

    Ce jour, 25 Mai, Samedi

    Heure Température Précipitation Vent Pression Humidité
    00:00 +14°C° 0 mm 4 m/s 755 mmHg 83%
    01:00 +13°C° 0 mm 4 m/s 755 mmHg 85%
    02:00 +13°C° 0 mm 4 m/s 755 mmHg 86%
    03:00 +13°C° 0 mm 4 m/s 755 mmHg 86%
    04:00 +13°C° 0 mm 4 m/s 755 mmHg 86%
    05:00 +13°C° 0 mm 4 m/s 756 mmHg 86%
    06:00 +15°C° 0 mm 5 m/s 756 mmHg 81%
    07:00 +17°C° 0 mm 6 m/s 756 mmHg 75%
    08:00 +18°C° 0 mm 7 m/s 756 mmHg 68%
    09:00 +20°C° 0.4 mm 7 m/s 756 mmHg 66%
    10:00 +21°C° 0.4 mm 7 m/s 756 mmHg 64%
    11:00 +22°C° 0.4 mm 7 m/s 756 mmHg 62%
    12:00 +23°C° 0.7 mm 6 m/s 756 mmHg 61%
    13:00 +24°C° 0.7 mm 6 m/s 756 mmHg 59%
    14:00 +24°C° 0.7 mm 6 m/s 756 mmHg 57%
    15:00 +24°C° 0.2 mm 6 m/s 756 mmHg 57%
    16:00 +25°C° 0.2 mm 5 m/s 756 mmHg 57%
    17:00 +25°C° 0.2 mm 5 m/s 756 mmHg 57%
    18:00 +23°C° 0 mm 5 m/s 756 mmHg 63%
    19:00 +21°C° 0 mm 4 m/s 756 mmHg 69%
    20:00 +19°C° 0 mm 4 m/s 756 mmHg 75%
    21:00 +19°C° 0 mm 4 m/s 756 mmHg 77%
    22:00 +18°C° 0 mm 4 m/s 757 mmHg 79%
    23:00 +17°C° 0 mm 4 m/s 758 mmHg 82%

    Demain, 26 Mai, Dimanche

    Heure Température Précipitation Vent Pression Humidité
    00:00 +16°C° 0 mm 3 m/s 758 mmHg 82%
    01:00 +16°C° 0 mm 3 m/s 758 mmHg 83%
    02:00 +16°C° 0 mm 3 m/s 758 mmHg 84%
    03:00 +14°C° 0 mm 3 m/s 758 mmHg 85%
    04:00 +14°C° 0 mm 3 m/s 758 mmHg 85%
    05:00 +15°C° 0 mm 2 m/s 758 mmHg 85%
    06:00 +17°C° 0 mm 2 m/s 758 mmHg 80%
    07:00 +19°C° 0 mm 2 m/s 758 mmHg 75%
    08:00 +20°C° 0 mm 2 m/s 758 mmHg 69%
    09:00 +23°C° 0 mm 2 m/s 758 mmHg 63%
    10:00 +25°C° 0 mm 2 m/s 758 mmHg 57%
    11:00 +26°C° 0 mm 2 m/s 758 mmHg 51%
    12:00 +27°C° 0 mm 2 m/s 758 mmHg 48%
    13:00 +28°C° 0 mm 1 m/s 758 mmHg 45%
    14:00 +29°C° 0 mm 1 m/s 757 mmHg 41%
    15:00 +29°C° 0 mm 1 m/s 757 mmHg 41%
    16:00 +27°C° 0 mm 0 m/s 757 mmHg 40%
    17:00 +27°C° 0 mm 0 m/s 757 mmHg 40%
    18:00 +27°C° 0 mm 1 m/s 757 mmHg 45%
    19:00 +25°C° 0 mm 1 m/s 757 mmHg 51%
    20:00 +23°C° 0 mm 1 m/s 757 mmHg 56%
    21:00 +22°C° 0 mm 1 m/s 757 mmHg 59%
    22:00 +22°C° 0 mm 1 m/s 758 mmHg 63%
    23:00 +21°C° 0 mm 1 m/s 758 mmHg 66%

    Après-demain, 27 Mai, Lundi

    Heure Température Précipitation Vent Pression Humidité
    00:00 +20°C° 0 mm 1 m/s 758 mmHg 69%
    01:00 +20°C° 0 mm 1 m/s 758 mmHg 72%
    02:00 +19°C° 0 mm 1 m/s 758 mmHg 75%
    03:00 +19°C° 0 mm 1 m/s 758 mmHg 76%
    04:00 +18°C° 0 mm 1 m/s 758 mmHg 78%
    05:00 +18°C° 0 mm 1 m/s 758 mmHg 79%
    06:00 +19°C° 0 mm 1 m/s 758 mmHg 76%
    07:00 +21°C° 0 mm 1 m/s 758 mmHg 72%
    08:00 +22°C° 0 mm 1 m/s 757 mmHg 69%
    09:00 +24°C° 0 mm 2 m/s 757 mmHg 65%
    10:00 +25°C° 0 mm 2 m/s 757 mmHg 61%
    11:00 +27°C° 0 mm 2 m/s 757 mmHg 57%
    12:00 +28°C° 0 mm 3 m/s 757 mmHg 55%
    13:00 +29°C° 0 mm 3 m/s 756 mmHg 53%
    14:00 +29°C° 0 mm 3 m/s 756 mmHg 50%
    15:00 +30°C° 0 mm 3 m/s 756 mmHg 52%
    16:00 +30°C° 0 mm 3 m/s 756 mmHg 54%
    17:00 +30°C° 0 mm 2 m/s 755 mmHg 56%
    18:00 +28°C° 0 mm 2 m/s 755 mmHg 59%
    19:00 +27°C° 0 mm 2 m/s 755 mmHg 62%
    20:00 +25°C° 0 mm 2 m/s 755 mmHg 65%
    21:00 +24°C° 0.2 mm 2 m/s 755 mmHg 70%
    22:00 +23°C° 0.2 mm 2 m/s 755 mmHg 74%
    23:00 +21°C° 0.2 mm 2 m/s 755 mmHg 79%

    28 Mai, Mardi

    Heure Température Précipitation Vent Pression Humidité
    00:00 +20°C° 0.4 mm 2 m/s 755 mmHg 82%
    01:00 +20°C° 0.4 mm 2 m/s 755 mmHg 86%
    02:00 +19°C° 0.4 mm 2 m/s 754 mmHg 89%
    03:00 +19°C° 0.3 mm 2 m/s 754 mmHg 90%
    04:00 +18°C° 0.3 mm 2 m/s 754 mmHg 90%
    05:00 +18°C° 0.3 mm 3 m/s 754 mmHg 91%
    06:00 +19°C° 0.1 mm 3 m/s 754 mmHg 86%
    07:00 +19°C° 0.1 mm 3 m/s 753 mmHg 81%
    08:00 +20°C° 0.1 mm 3 m/s 753 mmHg 77%
    09:00 +22°C° 0 mm 3 m/s 753 mmHg 72%
    10:00 +24°C° 0 mm 3 m/s 753 mmHg 67%
    11:00 +26°C° 0 mm 2 m/s 752 mmHg 63%
    12:00 +27°C° 0 mm 3 m/s 752 mmHg 59%
    13:00 +28°C° 0 mm 3 m/s 751 mmHg 55%
    14:00 +29°C° 0 mm 3 m/s 751 mmHg 51%
    15:00 +29°C° 0 mm 2 m/s 750 mmHg 52%
    16:00 +29°C° 0 mm 2 m/s 750 mmHg 53%
    17:00 +29°C° 0 mm 2 m/s 750 mmHg 53%
    18:00 +28°C° 0.1 mm 2 m/s 750 mmHg 58%
    19:00 +26°C° 0.1 mm 2 m/s 750 mmHg 62%
    20:00 +25°C° 0.1 mm 3 m/s 750 mmHg 66%
    21:00 +24°C° 0.1 mm 2 m/s 750 mmHg 70%
    22:00 +21°C° 0.1 mm 2 m/s 751 mmHg 73%
    23:00 +20°C° 0.1 mm 2 m/s 751 mmHg 76%

    29 Mai, Mercredi

    Heure Température Précipitation Vent Pression Humidité
    00:00 +20°C° 0 mm 2 m/s 751 mmHg 75%
    01:00 +19°C° 0 mm 2 m/s 752 mmHg 73%
    02:00 +19°C° 0 mm 2 m/s 752 mmHg 72%
    03:00 +18°C° 0 mm 2 m/s 752 mmHg 73%
    04:00 +17°C° 0 mm 2 m/s 752 mmHg 75%
    05:00 +16°C° 0 mm 2 m/s 753 mmHg 76%
    06:00 +18°C° 0 mm 2 m/s 753 mmHg 71%
    07:00 +20°C° 0 mm 2 m/s 753 mmHg 67%
    08:00 +23°C° 0 mm 2 m/s 753 mmHg 62%
    09:00 +25°C° 0 mm 3 m/s 753 mmHg 57%
    10:00 +26°C° 0 mm 3 m/s 753 mmHg 52%
    11:00 +28°C° 0 mm 3 m/s 754 mmHg 48%
    12:00 +28°C° 0 mm 4 m/s 753 mmHg 47%
    13:00 +29°C° 0 mm 4 m/s 753 mmHg 46%
    14:00 +30°C° 0 mm 4 m/s 753 mmHg 45%
    15:00 +29°C° 0 mm 4 m/s 753 mmHg 46%
    16:00 +29°C° 0 mm 4 m/s 753 mmHg 46%
    17:00 +29°C° 0 mm 4 m/s 753 mmHg 47%
    18:00 +27°C° 0 mm 4 m/s 754 mmHg 53%
    19:00 +25°C° 0 mm 4 m/s 755 mmHg 60%
    20:00 +24°C° 0 mm 3 m/s 755 mmHg 66%
    21:00 +21°C° 0 mm 3 m/s 756 mmHg 68%
    22:00 +20°C° 0 mm 3 m/s 757 mmHg 69%
    23:00 +19°C° 0 mm 3 m/s 757 mmHg 71%

    30 Mai, Jeudi

    Heure Température Précipitation Vent Pression Humidité
    00:00 +18°C° 0 mm 3 m/s 757 mmHg 73%
    01:00 +17°C° 0 mm 3 m/s 758 mmHg 75%
    02:00 +17°C° 0 mm 3 m/s 758 mmHg 77%
    03:00 +16°C° 0 mm 3 m/s 758 mmHg 80%
    04:00 +16°C° 0 mm 3 m/s 758 mmHg 82%
    05:00 +14°C° 0 mm 4 m/s 759 mmHg 84%
    06:00 +17°C° 0 mm 4 m/s 759 mmHg 79%
    07:00 +18°C° 0 mm 4 m/s 759 mmHg 74%
    08:00 +20°C° 0 mm 5 m/s 759 mmHg 69%
    09:00 +21°C° 0 mm 4 m/s 759 mmHg 64%
    10:00 +23°C° 0 mm 4 m/s 759 mmHg 58%
    11:00 +25°C° 0 mm 4 m/s 759 mmHg 53%
    12:00 +26°C° 0 mm 4 m/s 759 mmHg 51%
    13:00 +27°C° 0 mm 4 m/s 759 mmHg 50%
    14:00 +27°C° 0 mm 4 m/s 758 mmHg 48%
    15:00 +27°C° 0 mm 4 m/s 758 mmHg 50%
    16:00 +26°C° 0 mm 4 m/s 758 mmHg 53%
    17:00 +26°C° 0 mm 5 m/s 758 mmHg 55%
    18:00 +23°C° 0 mm 5 m/s 758 mmHg 60%
    19:00 +21°C° 0 mm 4 m/s 758 mmHg 65%
    20:00 +19°C° 0 mm 4 m/s 759 mmHg 70%
    21:00 +19°C° 0.1 mm 4 m/s 759 mmHg 72%
    22:00 +17°C° 0.1 mm 5 m/s 759 mmHg 73%
    23:00 +16°C° 0.1 mm 5 m/s 759 mmHg 74%
    Voir plus